Regional Weather Roundup
Issued by NWS Wakefield, VA

Home | Current Version | Previous Version | Graphics & Text | Print | Product List | Glossary On
Versions: 1 2 3 4 5 6 7 8 9 10 11 12 13 14 15 16 17 18 19 20 21 22 23 24 25 26 27 28 29 30 31 32 33 34 35 36 37 38 39 40 41 42 43 44 45 46 47 48 49 50
000
ASUS41 KAKQ 041010
RWRAKQ

REGIONAL WEATHER ROUNDUP
NATIONAL WEATHER SERVICE WAKEFIELD VA
500 AM EST WED MAR 04 2015

Note: "fair" indicates few or no clouds below 12,000 feet with no
significant weather and/or obstructions to visibility. * = Denotes
station may not report precipitation (e.g., rain,snow,etc.),
thunder or fog.

VAZ042-051-052>054-056-041100-
NORTHERN VIRGINIA

CITY           SKY/WX    TMP DP  RH WIND       PRES   REMARKS
WASH NATIONAL  LGT RAIN  40  36  86 S7        29.85F
DULLES         CLOUDY    37  34  89 S5        29.82S
FORT BELVOIR   LGT RAIN  39  37  92 VRB2      29.86S
QUANTICO       HVY RAIN  38  36  92 S5        29.89R FOG
FREDERICKSBRG* LGT RAIN  43  43 100 NW6       29.89R
STAFFORD*      RAIN      39  32  76 N3        29.92R
WARRENTON      CLOUDY    39  39 100 S8        29.84F FOG
CULPEPER*      DRIZZLE   39  37  93 S3        29.86S
MANASSAS*      CLOUDY    37  37 100 S7        29.85R
LEESBURG*      CLOUDY    36  36 100 CALM      29.83S
WINCHESTER     CLOUDY    43  37  81 SW3       29.82R
FRONT ROYAL*   CLOUDY    43  43 100 S3        29.80S
LURAY*         CLOUDY    45  45 100 CALM      29.82S FOG
$$

VAZ048-049-060>072-079>083-041100-
CENTRAL AND SOUTH CENTRAL VIRGINIA

CITY           SKY/WX    TMP DP  RH WIND       PRES   REMARKS
RICHMOND       CLOUDY    49  46  90 SW12      29.88S
CHESTERFIELD*  CLOUDY    48  39  71 SW9       29.89S
PETERSBURG*    CLOUDY    47  47  97 SW9       29.90F FOG
HANOVER        CLOUDY    47  45  93 S10       29.87F
TAPPAHANNOCK*  CLOUDY    46  43  88 S8        29.87R
QUINTON*       CLOUDY    46  45  97 SW8       29.88R
CHARLOTTSVILLE CLOUDY    40  36  86 VRB5      29.86R
GORDONSVILLE*  CLOUDY    39  37  90 CALM      29.87R
ORANGE*        CLOUDY    39  37  93 CALM      29.89R FOG
LOUISA*        CLOUDY    43  41  93 SW9       29.84R
BUMPASS*       CLOUDY    42  40  91 SW7       29.85R
FARMVILLE*     CLOUDY    46  46 100 SW12      29.87S
CREWE*         CLOUDY    49  47  93 SW8G20    29.88S
FORT PICKETT*  CLOUDY    46  46  98 SW18G26   29.89S
CHASE CITY*    CLOUDY    47  47 100 CALM      29.92S
CLARKSVILLE*   CLOUDY    45  45 100 SW9       29.93F
SOUTH HILL*    CLOUDY    47  46  99 SW17G30   29.99S
LAWRENCEVILLE* CLOUDY    45  45 100 SW10      29.92S
EMPORIA*       CLOUDY    45  45 100 S7        29.96S FOG
$$

VAZ088>098-041100-
SOUTHEAST VIRGINIA

CITY           SKY/WX    TMP DP  RH WIND       PRES   REMARKS
NORFOLK        CLOUDY    48  46  93 SW20G31   29.92S FOG
VIRGINIA BEACH CLOUDY    50  47  89 SW18      29.94S FOG
NORFOLK NAVAL  FOG       49  45  86 SW13G20   29.95R VSB 1/2
WEST POINT*    CLOUDY    48  46  91 SW8       29.90S
SALUDA*        CLOUDY    46  45  96 SW13G21   29.87F
NEWPORT NEWS   FOG       46  43  89 SW15      29.92S VSB 1
LANGLEY AFB    FOG       45  45 100 SW16G23   29.92R VSB 1
FORT EUSTIS    FOG       42  42 100 S6        29.90S VSB 3/4
WILLIAMSBURG*  CLOUDY    48  46  93 SW8       29.91F
HR EXEC AP*    CLOUDY    46  45  93 SW14G20   29.97S VSB 1
FRANKLIN*      FOG       44  43  99 SW12G17   29.96S VSB 1
WAKEFIELD      FOG       46  44  93 VRB7G18   29.93S VSB 3/4
$$

VAZ020-022-025-037-045-041100-
WEST CENTRAL AND SOUTHWEST VIRGINIA

CITY           SKY/WX    TMP DP  RH WIND       PRES   REMARKS
STAUNTON*      DRZL/FOG  42  41  93 CALM      29.85R VSB 1/2
WAYNESBORO*    CLOUDY    46  45  97 NW12G17   29.84R
HOT SPRINGS VA SNOW      46  46 100 W16       29.84R VSB<1/4
LYNCHBURG      CLOUDY    41  41 100 S7        29.88S FOG
DANVILLE       CLOUDY    43  41  93 SW7       29.94S FOG
SOUTH BOSTON*  CLOUDY    44  42  95 SW6       29.93S
MARTINSVILLE   CLOUDY    42  42 100 SW3       29.96R FOG
ROANOKE        RAIN      37  36  96 S5        29.90R FOG
BLACKSBURG     RAIN      42  42  98 S5        29.92R
DUBLIN*        RAIN      44  44 100 SW9       29.90S
MARION*        FOG       48  47  97 W12       29.93S VSB 1/4
HILLSVILLE*    CLOUDY    51  49  95 S8        29.90R
RICHLANDS*     HVY RAIN  52  50  93 S14G23    29.90S
WISE*          HVY RAIN  52  52 100 SW22G28   29.92R
ABINGDON*      LGT RAIN  47  47 100 W3        29.93R VSB 1/2
$$

MDZ021>025-VAZ099-100-041100-
SOUTHERN MARYLAND AND THE DELMARVA PENINSULA

CITY           SKY/WX    TMP DP  RH WIND       PRES   REMARKS
PATUXENT RIVER LGT RAIN  44  40  85 W10       29.88R FOG
BAY BRIDGE APT LGT RAIN  37  37 100 S6        29.84S
LEONARDTOWN    CLOUDY    43  39  87 W7        29.89R
DOVER          LGT RAIN  40  40 100 SW10      29.83F
GEORGETOWN     RAIN      42  40  92 W7        29.86R FOG
EASTON         RAIN      41  41 100 SW9       29.89F
CAMBRIDGE      CLOUDY    43  41  93 NW5       29.88S
SALISBURY      CLOUDY    46  43  89 W14G21    29.87R FOG
OCEAN CITY     CLOUDY    48  47  96 W15G22    29.86R
WALLOPS ISLAND CLOUDY    51  50  96 W21G35    29.85F
ACCOMACK*      CLOUDY    45  41  87 SW18G24   29.89S FOG
$$

NCZ012>017-030>032-041100-
NORTH CENTRAL AND EASTERN NORTH CAROLINA

CITY           SKY/WX    TMP DP  RH WIND       PRES   REMARKS
ROANOKE RAPIDS FOG       43  43 100 SW7       29.97S VSB 1/2
RALEIGH        FOG       41  39  93 SW12      30.00S VSB 1/8
ELIZABETH CITY FOG       51  51 100 SW14      29.98S VSB 3/4
AHOSKIE*       FOG       43  42  98 SW5       29.98S VSB 3/4
EDENTON*       FOG       46  46  99 SW10G17   30.00R VSB 1/2
CURRITUCK*     FOG       50  49  95 SW10      29.99R VSB 1/2
KILL DEVIL HLS CLOUDY    60  60 100 SW10G20   29.97S FOG
MANTEO         CLOUDY    57  57 100 SW21G26   29.99R FOG
CAPE HATTERAS  FOG       55  55 100 SW13      30.03R VSB 1/4
TARBORO*       FOG       44  43  97 SW8       30.01S VSB 3/4
GOLDSBORO      FOG       43  43 100 W6        30.01R VSB 1/2
WASHINGTON     FOG       46  45  99 SW3       30.02S VSB 1/4
GREENVILLE     FOG       45  45 100 SW7       30.03S VSB 3/4
NEW BERN       CLOUDY    60  58  92 SW9       30.03S
WILMINGTON     FOG       57  57 100 SW10      30.06S VSB 1/4
$$

VAZ048-041100-
ELSEWHERE

CITY           SKY/WX    TMP DP  RH WIND       PRES   REMARKS
HARRISBURG PA  LGT RAIN  33  31  92 CALM      29.80S FOG
BALTIMORE      CLOUDY    38  35  89 SW6       29.82R
ANNAPOLIS      LGT RAIN  39  37  92 CALM      29.83S
ANDREWS AFB    CLOUDY    38  37  96 S10       29.82F
PHILADELPHIA   LGT RAIN  35  33  92 SW10      29.82S FOG
HENDERSON NC   FOG       44  42  95 SW14G22   29.95F VSB 3/4
GREENSBORO     FOG       43  42  97 SW9       29.96R VSB 1/4
ROCKY MOUNT    FOG       44  43  96 S10       30.00F VSB 3/4
$$

VAZ100-041100-
MARINE

STATION/POSITION TIME  TEMP    WIND        PRES    WAVE   SWELL
                       AIR SEA DIR/SP/G            HT/PER HT/PER
                 (UTC) (F)     (DEG/KT/KT) (MB)    (FT/S) (FT/S)
BRANDYWINE LGT   1000   38 31  300/ 10/ 11 1011.0S
CAPE MAY NJ      1000   36 34  300/  4/  5 1010.6R
LEWES DE         1000   43 30  270/ 10/ 13 1010.7R
15NM E FENWICK I 1000   37 35              1010.5R   5/ 7
OCEAN-CITY-INLET 1000   47 34  240/ 14/ 16 1010.0R
WACHAPREAGUE VA  1000   45 36  240/  7/ 16 1012.2R
THOMAS POINT MD  1000   37 32  190/ 14/ 15 1011.2F
COVE POINT MD    1000   43     320/  5/  7 1011.4R
SOLOMONS ISLAND  1000      33                N/A
BISHOPS HEAD MD  1000   39 33  260/ 12/ 15 1010.8R
CAMBRIDGE MD     1000   42 32  250/  5/  7 1011.7R
LEWISETTA VA     1000   45 33  240/ 12/ 17 1010.6R
RAPPAHANNOCK LGT 1000          180/  7/  8 1013.0F
STINGRAY PT      1000   40 33  220/ 16/ 17   N/A     1/ 2
YORK RVR RNG VA  1000   42     240/ 12/ 16 1012.1F
YORKTOWN VA      1000   44 34  230/ 12/ 17 1012.2R
DOMINION TERM VA 1000   42     220/ 15/ 19 1013.0F
KIPTOPEKE VA     1000      38  230/  5/  6   N/A
CHES BAY BRIDGE  1000   47 34  200/ 20/ 24 1012.7S
CAPE HENRY VA    1000   48     210/ 13/ 21 1012.1S
CHESAPEAKE LGHT  0900   43     230/ 24/ 25 1013.8F
WILLOUBY STN VA  1000   45     220/ 22/ 25 1013.3S
S CRANEY ISL VA  1000          210/ 13/ 18 1013.5S
CAPE HENRY BUOY  1000      35                N/A     4/ 6
1ST LANDING BUOY 1000   44 34  230/ 16/ 21 1013.2R   2/ 3
OFFSHORE WE BUOY 1000      36                N/A     5/ 6   3/ 9
64NM E OF VA BCH 1000   57 56  220/ 21/ 25 1013.4R   7/ 7   3/ 9
DUCK PIER NC     1000   49 35  230/  8/ 10 1014.3S
44100 DUCK FRF   1000      37                N/A     6/ 7
44056 DUCK FRF   1000      35                N/A     5/ 7
OREGON INLET NC  1000   48 43  210/ 15/ 16 1015.7S
HATTERAS NC      1000   57 44  210/ 12/ 16 1016.8R
CAPE LOOKOUT NC  0900   58     220/ 10/ 12 1017.7F
$$



USA.gov is the U.S. government's official web portal to all federal, state and local government web resources and services.